| time (UTC) | temp F | wind direction | speed MPH | gust MPH | rain 1hr in | rain 24hr in | rain mn in | humidity % | barometer mb |
| 20260905040346 | 79 | 310 | 0.0 | 2.0 | 0.00 | 0.63 | 0.63 | 87 | 1012.9 |
| 20260905040104 | 79 | 348 | 0.0 | 0.0 | 0.00 | 0.63 | 0.63 | 87 | 1012.8 |
| 20260905035345 | 79 | 215 | 0.0 | 1.0 | 0.00 | 0.63 | 0.63 | 87 | 1012.7 |
| 20260905034844 | 79 | 215 | 0.0 | 3.0 | 0.00 | 0.63 | 0.63 | 87 | 1012.8 |
| 20260905034341 | 79 | 338 | 0.0 | 3.0 | 0.00 | 0.63 | 0.63 | 87 | 1012.7 |
| 20260905033839 | 80 | 88 | 0.0 | 0.0 | 0.00 | 0.63 | 0.63 | 87 | 1012.7 |
| 20260905033608 | 80 | 88 | 0.0 | 0.0 | 0.00 | 0.63 | 0.63 | 86 | 1012.7 |
| 20260905032835 | 80 | 88 | 0.0 | 0.0 | 0.00 | 0.63 | 0.63 | 86 | 1012.8 |
| 20260905032333 | 80 | 88 | 0.0 | 0.0 | 0.00 | 0.63 | 0.63 | 86 | 1012.9 |
| 20260905031826 | 80 | 88 | 0.0 | 0.0 | 0.00 | 0.63 | 0.63 | 86 | 1012.9 |
| 20260905031321 | 80 | 88 | 0.0 | 0.0 | 0.00 | 0.63 | 0.63 | 86 | 1012.9 |
| 20260905030814 | 80 | 88 | 0.0 | 0.0 | 0.00 | 0.63 | 0.63 | 86 | 1012.9 |
| 20260905030535 | 80 | 88 | 0.0 | 0.0 | 0.00 | 0.63 | 0.63 | 86 | 1012.9 |
| 20260905025802 | 80 | 88 | 0.0 | 0.0 | 0.00 | 0.63 | 0.63 | 86 | 1012.9 |
| 20260905025258 | 80 | 88 | 0.0 | 0.0 | 0.00 | 0.63 | 0.63 | 86 | 1012.9 |
| 20260905024751 | 80 | 88 | 0.0 | 0.0 | 0.00 | 0.63 | 0.63 | 86 | 1012.9 |
| 20260905024244 | 80 | 88 | 0.0 | 0.0 | 0.00 | 0.63 | 0.63 | 85 | 1012.9 |
| 20260905023739 | 80 | 88 | 0.0 | 0.0 | 0.00 | 0.63 | 0.63 | 85 | 1012.9 |
| 20260905023232 | 80 | 88 | 0.0 | 0.0 | 0.00 | 0.63 | 0.63 | 85 | 1012.9 |
| 20260905022726 | 80 | 88 | 0.0 | 0.0 | 0.00 | 0.63 | 0.63 | 85 | 1012.8 |
| 20260905022221 | 80 | 88 | 0.0 | 0.0 | 0.00 | 0.63 | 0.63 | 85 | 1012.9 |
| 20260905021714 | 80 | 88 | 0.0 | 1.0 | 0.00 | 0.63 | 0.63 | 85 | 1013.0 |
| 20260905021210 | 81 | 88 | 0.0 | 2.0 | 0.00 | 0.63 | 0.63 | 84 | 1012.9 |
| 20260905020702 | 81 | 88 | 1.0 | 4.0 | 0.00 | 0.63 | 0.63 | 84 | 1012.8 |
| 20260905020424 | 81 | 88 | 1.0 | 4.0 | 0.00 | 0.63 | 0.63 | 84 | 1012.7 |
| 20260905015650 | 81 | 80 | 0.0 | 1.0 | 0.00 | 0.63 | 0.63 | 83 | 1012.8 |
| 20260905015408 | 81 | 80 | 0.0 | 0.0 | 0.00 | 0.63 | 0.63 | 83 | 1012.7 |
| 20260905015124 | 81 | 80 | 0.0 | 1.0 | 0.00 | 0.63 | 0.63 | 83 | 1012.7 |
| 20260905014351 | 82 | 80 | 0.0 | 2.0 | 0.00 | 0.63 | 0.63 | 83 | 1012.7 |
| 20260905013850 | 82 | 80 | 0.0 | 2.0 | 0.00 | 0.63 | 0.63 | 82 | 1012.5 |
| 20260905013120 | 82 | 80 | 0.0 | 1.0 | 0.00 | 0.63 | 0.63 | 82 | 1012.3 |
| 20260905012614 | 82 | 80 | 1.0 | 4.0 | 0.00 | 0.63 | 0.63 | 82 | 1012.2 |
| 20260905012109 | 82 | 80 | 2.0 | 4.0 | 0.00 | 0.63 | 0.63 | 82 | 1012.2 |
| 20260905011821 | 83 | 80 | 2.0 | 4.0 | 0.00 | 0.63 | 0.63 | 82 | 1012.2 |
| 20260905011056 | 83 | 80 | 1.0 | 4.0 | 0.00 | 0.63 | 0.63 | 81 | 1012.2 |
| 20260905010550 | 84 | 242 | 0.0 | 0.0 | 0.00 | 0.63 | 0.63 | 80 | 1012.1 |
| 20260905010305 | 84 | 244 | 0.0 | 0.0 | 0.00 | 0.63 | 0.63 | 80 | 1012.0 |
| 20260905005800 | 84 | 244 | 0.0 | 0.0 | 0.00 | 0.63 | 0.63 | 79 | 1011.9 |
| 20260905005032 | 85 | 244 | 0.0 | 0.0 | 0.00 | 0.63 | 0.63 | 79 | 1011.8 |
| 20260905004526 | 85 | 244 | 0.0 | 0.0 | 0.00 | 0.63 | 0.63 | 79 | 1011.8 |
| 20260905004244 | 85 | 244 | 0.0 | 0.0 | 0.00 | 0.63 | 0.63 | 78 | 1011.6 |
| 20260905003521 | 86 | 244 | 0.0 | 0.0 | 0.00 | 0.63 | 0.63 | 78 | 1011.6 |
| 20260905003019 | 86 | 244 | 0.0 | 0.0 | 0.00 | 0.63 | 0.63 | 78 | 1011.5 |
| 20260905002519 | 86 | 244 | 0.0 | 0.0 | 0.00 | 0.63 | 0.63 | 77 | 1011.4 |
| 20260905002018 | 87 | 244 | 0.0 | 0.0 | 0.00 | 0.63 | 0.63 | 77 | 1011.5 |
| 20260905001518 | 87 | 244 | 0.0 | 0.0 | 0.00 | 0.63 | 0.63 | 76 | 1011.5 |
| 20260905001018 | 87 | 241 | 0.0 | 0.0 | 0.00 | 0.63 | 0.63 | 75 | 1011.3 |
| 20260905000518 | 87 | 271 | 0.0 | 0.0 | 0.00 | 0.63 | 0.63 | 75 | 1011.3 |
| 20260905000019 | 87 | 271 | 0.0 | 0.0 | 0.00 | 0.63 | 0.63 | 74 | 1011.3 |
| 20260904235519 | 87 | 248 | 1.0 | 4.0 | 0.00 | 0.63 | 0.63 | 74 | 1011.1 |
| 20260904235014 | 88 | 249 | 2.0 | 6.0 | 0.00 | 0.63 | 0.63 | 74 | 1011.2 |
| 20260904234515 | 88 | 219 | 3.0 | 6.0 | 0.00 | 0.63 | 0.63 | 73 | 1011.3 |
| 20260904234015 | 88 | 217 | 3.0 | 6.0 | 0.00 | 0.63 | 0.63 | 73 | 1011.3 |
| 20260904233736 | 88 | 220 | 3.0 | 6.0 | 0.00 | 0.63 | 0.63 | 72 | 1011.3 |
| 20260904233015 | 88 | 223 | 4.0 | 6.0 | 0.00 | 0.63 | 0.63 | 72 | 1011.4 |
| 20260904232515 | 88 | 224 | 4.0 | 7.0 | 0.00 | 0.63 | 0.63 | 72 | 1011.6 |
| 20260904232014 | 89 | 222 | 3.0 | 7.0 | 0.00 | 0.63 | 0.63 | 71 | 1011.6 |
| 20260904231515 | 89 | 215 | 3.0 | 6.0 | 0.00 | 0.63 | 0.63 | 72 | 1011.6 |
| 20260904231015 | 89 | 211 | 4.0 | 8.0 | 0.00 | 0.63 | 0.63 | 71 | 1011.5 |
| 20260904230515 | 89 | 213 | 4.0 | 8.0 | 0.00 | 0.63 | 0.63 | 71 | 1011.6 |
| 20260904230014 | 89 | 227 | 3.0 | 8.0 | 0.00 | 0.63 | 0.63 | 71 | 1011.7 |
| 20260904225732 | 89 | 222 | 3.0 | 4.0 | 0.00 | 0.63 | 0.63 | 72 | 1011.5 |
| 20260904225240 | 89 | 221 | 3.0 | 6.0 | 0.00 | 0.63 | 0.63 | 72 | 1011.4 |
| 20260904224515 | 89 | 283 | 3.0 | 7.0 | 0.00 | 0.63 | 0.63 | 72 | 1011.3 |
| 20260904224015 | 89 | 239 | 3.0 | 7.0 | 0.00 | 0.63 | 0.63 | 71 | 1011.4 |
| 20260904223515 | 90 | 230 | 2.0 | 4.0 | 0.00 | 0.63 | 0.63 | 72 | 1011.3 |
| 20260904223013 | 90 | 220 | 2.0 | 5.0 | 0.00 | 0.63 | 0.63 | 72 | 1011.3 |
| 20260904222511 | 90 | 210 | 2.0 | 6.0 | 0.00 | 0.63 | 0.63 | 72 | 1011.3 |
| 20260904222010 | 90 | 229 | 2.0 | 7.0 | 0.00 | 0.63 | 0.63 | 71 | 1011.2 |
| 20260904221510 | 90 | 217 | 3.0 | 7.0 | 0.00 | 0.63 | 0.63 | 71 | 1011.2 |
| 20260904221226 | 90 | 293 | 4.0 | 8.0 | 0.00 | 0.63 | 0.63 | 71 | 1011.1 |
| 20260904220506 | 90 | 221 | 4.0 | 8.0 | 0.00 | 0.63 | 0.63 | 71 | 1010.9 |
| 20260904220005 | 90 | 228 | 5.0 | 9.0 | 0.00 | 0.63 | 0.63 | 71 | 1011.0 |
| 20260904215500 | 90 | 211 | 5.0 | 10.0 | 0.00 | 0.63 | 0.63 | 72 | 1011.0 |
| 20260904215215 | 90 | 221 | 5.0 | 10.0 | 0.00 | 0.63 | 0.63 | 71 | 1011.1 |
| 20260904214447 | 90 | 160 | 4.0 | 8.0 | 0.00 | 0.63 | 0.63 | 71 | 1011.1 |
| 20260904213942 | 90 | 214 | 4.0 | 8.0 | 0.00 | 0.63 | 0.63 | 71 | 1011.3 |
| 20260904213435 | 90 | 209 | 4.0 | 10.0 | 0.00 | 0.63 | 0.63 | 71 | 1011.3 |
| 20260904212929 | 90 | 193 | 5.0 | 10.0 | 0.00 | 0.63 | 0.63 | 70 | 1011.2 |
| 20260904212645 | 90 | 200 | 4.0 | 7.0 | 0.00 | 0.63 | 0.63 | 69 | 1011.2 |
| 20260904211918 | 90 | 215 | 4.0 | 7.0 | 0.00 | 0.63 | 0.63 | 69 | 1011.3 |
| 20260904211411 | 90 | 191 | 3.0 | 7.0 | 0.00 | 0.63 | 0.63 | 70 | 1011.2 |
| 20260904210906 | 90 | 207 | 3.0 | 5.0 | 0.00 | 0.63 | 0.63 | 70 | 1011.2 |
| 20260904210400 | 90 | 222 | 4.0 | 9.0 | 0.00 | 0.63 | 0.63 | 70 | 1011.2 |
| 20260904205853 | 90 | 224 | 6.0 | 12.0 | 0.00 | 0.63 | 0.63 | 67 | 1011.1 |
| 20260904205348 | 90 | 179 | 7.0 | 15.0 | 0.00 | 0.63 | 0.63 | 68 | 1011.2 |
| 20260904204841 | 90 | 183 | 7.0 | 15.0 | 0.00 | 0.63 | 0.63 | 67 | 1011.2 |
| 20260904204337 | 90 | 229 | 6.0 | 11.0 | 0.00 | 0.63 | 0.63 | 67 | 1011.3 |
| 20260904203829 | 90 | 181 | 6.0 | 10.0 | 0.00 | 0.63 | 0.63 | 66 | 1011.2 |
| 20260904203324 | 90 | 188 | 6.0 | 13.0 | 0.00 | 0.63 | 0.63 | 67 | 1011.3 |
| 20260904203037 | 91 | 184 | 5.0 | 10.0 | 0.00 | 0.63 | 0.63 | 66 | 1011.2 |
| 20260904202311 | 92 | 216 | 4.0 | 10.0 | 0.00 | 0.63 | 0.63 | 62 | 1011.2 |
| 20260904201806 | 93 | 211 | 3.0 | 10.0 | 0.00 | 0.63 | 0.63 | 63 | 1011.1 |
| 20260904201300 | 93 | 276 | 3.0 | 6.0 | 0.00 | 0.63 | 0.63 | 63 | 1011.1 |
| 20260904200754 | 92 | 198 | 3.0 | 8.0 | 0.00 | 0.63 | 0.63 | 64 | 1011.0 |
| 20260904200248 | 92 | 204 | 4.0 | 8.0 | 0.00 | 0.63 | 0.63 | 64 | 1011.0 |
| 20260904195741 | 92 | 210 | 4.0 | 8.0 | 0.00 | 0.63 | 0.63 | 64 | 1011.0 |
| 20260904195236 | 92 | 219 | 3.0 | 8.0 | 0.00 | 0.63 | 0.63 | 64 | 1011.1 |
| 20260904194730 | 92 | 232 | 4.0 | 10.0 | 0.00 | 0.63 | 0.63 | 65 | 1011.1 |
| 20260904194223 | 92 | 194 | 3.0 | 10.0 | 0.00 | 0.63 | 0.63 | 68 | 1011.1 |
| 20260904193718 | 91 | 221 | 2.0 | 6.0 | 0.00 | 0.63 | 0.63 | 67 | 1011.1 |
| 20260904193211 | 91 | 227 | 3.0 | 9.0 | 0.00 | 0.63 | 0.63 | 69 | 1011.1 |
| 20260904192707 | 91 | 190 | 4.0 | 9.0 | 0.00 | 0.63 | 0.63 | 68 | 1011.1 |
| 20260904192159 | 90 | 159 | 2.0 | 9.0 | 0.00 | 0.63 | 0.63 | 68 | 1011.1 |
| 20260904191655 | 90 | 188 | 2.0 | 7.0 | 0.00 | 0.63 | 0.63 | 70 | 1011.2 |
| 20260904191148 | 89 | 178 | 4.0 | 10.0 | 0.00 | 0.63 | 0.63 | 70 | 1011.2 |
| 20260904190641 | 89 | 201 | 4.0 | 10.0 | 0.00 | 0.63 | 0.63 | 72 | 1011.2 |
| 20260904190619 | 88 | 189 | 3.0 | 10.0 | 0.00 | 0.63 | 0.63 | 71 | 1011.2 |
| 20260904185630 | 87 | 124 | 3.0 | 8.0 | 0.00 | 0.63 | 0.63 | 72 | 1011.1 |
| 20260904185124 | 87 | 126 | 3.0 | 8.0 | 0.00 | 0.63 | 0.63 | 71 | 1011.3 |
| 20260904184618 | 87 | 161 | 2.0 | 7.0 | 0.00 | 0.63 | 0.63 | 70 | 1011.4 |
| 20260904184112 | 87 | 205 | 3.0 | 7.0 | 0.00 | 0.63 | 0.63 | 71 | 1011.4 |
| 20260904183605 | 86 | 153 | 3.0 | 9.0 | 0.00 | 0.63 | 0.63 | 73 | 1011.4 |
| 20260904183059 | 86 | 170 | 3.0 | 9.0 | 0.00 | 0.63 | 0.63 | 72 | 1011.4 |
| 20260904182553 | 86 | 125 | 3.0 | 9.0 | 0.00 | 0.63 | 0.63 | 74 | 1011.4 |
| 20260904182312 | 86 | 140 | 2.0 | 9.0 | 0.00 | 0.63 | 0.63 | 75 | 1011.3 |
| 20260904181542 | 86 | 148 | 3.0 | 11.0 | 0.00 | 0.63 | 0.63 | 74 | 1011.4 |
| 20260904181036 | 87 | 101 | 5.0 | 11.0 | 0.00 | 0.63 | 0.63 | 74 | 1011.3 |
| 20260904180530 | 86 | 180 | 4.0 | 10.0 | 0.00 | 0.63 | 0.63 | 76 | 1011.4 |
| 20260904180024 | 86 | 170 | 3.0 | 10.0 | 0.00 | 0.63 | 0.63 | 75 | 1011.4 |
| 20260904175518 | 86 | 192 | 5.0 | 16.0 | 0.00 | 0.63 | 0.63 | 76 | 1011.5 |
| 20260904175011 | 86 | 128 | 5.0 | 16.0 | 0.00 | 0.63 | 0.63 | 75 | 1011.5 |
| 20260904174506 | 86 | 119 | 4.0 | 10.0 | 0.00 | 0.63 | 0.63 | 75 | 1011.5 |
| 20260904174000 | 85 | 134 | 4.0 | 9.0 | 0.00 | 0.63 | 0.63 | 77 | 1011.6 |
| 20260904173453 | 84 | 161 | 2.0 | 6.0 | 0.00 | 0.63 | 0.63 | 77 | 1011.6 |
| 20260904173206 | 84 | 166 | 0.0 | 5.0 | 0.00 | 0.63 | 0.63 | 77 | 1011.4 |
| 20260904172442 | 84 | 166 | 2.0 | 5.0 | 0.00 | 0.63 | 0.63 | 76 | 1011.4 |
| 20260904172159 | 84 | 166 | 3.0 | 5.0 | 0.00 | 0.63 | 0.63 | 76 | 1011.5 |
| 20260904171431 | 84 | 167 | 2.0 | 5.0 | 0.00 | 0.63 | 0.63 | 75 | 1011.4 |
| 20260904170924 | 84 | 177 | 2.0 | 4.0 | 0.00 | 0.63 | 0.63 | 76 | 1011.5 |
| 20260904170417 | 84 | 177 | 2.0 | 6.0 | 0.00 | 0.63 | 0.63 | 75 | 1011.4 |
| 20260904165912 | 84 | 177 | 1.0 | 6.0 | 0.00 | 0.63 | 0.63 | 76 | 1011.4 |
| 20260904165406 | 84 | 171 | 1.0 | 5.0 | 0.00 | 0.63 | 0.63 | 76 | 1011.4 |
| 20260904164859 | 84 | 171 | 2.0 | 7.0 | 0.00 | 0.63 | 0.63 | 75 | 1011.3 |
| 20260904164354 | 85 | 92 | 2.0 | 7.0 | 0.00 | 0.63 | 0.63 | 75 | 1011.3 |
| 20260904163852 | 85 | 106 | 1.0 | 6.0 | 0.00 | 0.63 | 0.63 | 74 | 1011.4 |
| 20260904163351 | 85 | 99 | 2.0 | 6.0 | 0.00 | 0.63 | 0.63 | 77 | 1011.5 |
| 20260904162851 | 85 | 90 | 3.0 | 7.0 | 0.00 | 0.63 | 0.63 | 75 | 1011.6 |
| 20260904162351 | 85 | 180 | 2.0 | 7.0 | 0.00 | 0.63 | 0.63 | 74 | 1011.5 |
| 20260904161851 | 85 | 181 | 0.0 | 5.0 | 0.00 | 0.63 | 0.63 | 75 | 1011.4 |
| 20260904161351 | 84 | 171 | 1.0 | 3.0 | 0.00 | 0.63 | 0.63 | 76 | 1011.3 |
| 20260904160849 | 83 | 88 | 2.0 | 4.0 | 0.00 | 0.63 | 0.63 | 77 | 1011.4 |
| 20260904160348 | 83 | 88 | 2.0 | 4.0 | 0.00 | 0.63 | 0.63 | 78 | 1011.4 |
| 20260904155846 | 82 | 88 | 1.0 | 4.0 | 0.00 | 0.63 | 0.63 | 80 | 1011.5 |
| 20260904155346 | 82 | 134 | 1.0 | 3.0 | 0.00 | 0.63 | 0.63 | 80 | 1011.4 |
| 20260904154844 | 81 | 167 | 2.0 | 6.0 | 0.00 | 0.63 | 0.63 | 82 | 1011.5 |
| 20260904154345 | 81 | 167 | 2.0 | 6.0 | 0.00 | 0.63 | 0.63 | 82 | 1011.6 |
| 20260904153843 | 80 | 167 | 1.0 | 4.0 | 0.00 | 0.63 | 0.63 | 83 | 1011.5 |
| 20260904153343 | 80 | 167 | 1.0 | 4.0 | 0.00 | 0.63 | 0.63 | 83 | 1011.6 |
| 20260904152840 | 80 | 169 | 0.0 | 4.0 | 0.00 | 0.63 | 0.63 | 84 | 1011.7 |
| 20260904152339 | 79 | 166 | 1.0 | 5.0 | 0.00 | 0.64 | 0.63 | 84 | 1011.6 |
| 20260904151839 | 79 | 166 | 1.0 | 5.0 | 0.00 | 0.64 | 0.63 | 85 | 1011.6 |
| 20260904151339 | 79 | 162 | 0.0 | 0.0 | 0.00 | 0.64 | 0.63 | 86 | 1011.6 |
| 20260904150841 | 79 | 162 | 0.0 | 0.0 | 0.00 | 0.64 | 0.63 | 87 | 1011.6 |
| 20260904150339 | 78 | 96 | 0.0 | 0.0 | 0.00 | 0.64 | 0.63 | 88 | 1011.5 |
| 20260904150055 | 78 | 96 | 0.0 | 2.0 | 0.00 | 0.64 | 0.63 | 88 | 1011.5 |
| 20260904145339 | 78 | 91 | 0.0 | 2.0 | 0.00 | 0.64 | 0.63 | 89 | 1011.5 |
| 20260904144840 | 77 | 150 | 1.0 | 3.0 | 0.00 | 0.64 | 0.63 | 89 | 1011.5 |
| 20260904144340 | 77 | 150 | 2.0 | 6.0 | 0.00 | 0.64 | 0.63 | 90 | 1011.6 |
| 20260904143840 | 77 | 148 | 2.0 | 6.0 | 0.00 | 0.64 | 0.63 | 91 | 1011.5 |
| 20260904143339 | 76 | 82 | 2.0 | 4.0 | 0.00 | 0.64 | 0.63 | 91 | 1011.4 |
| 20260904143059 | 76 | 82 | 2.0 | 4.0 | 0.01 | 0.64 | 0.63 | 91 | 1011.4 |
| 20260904142340 | 76 | 82 | 2.0 | 4.0 | 0.01 | 0.64 | 0.63 | 91 | 1011.4 |
| 20260904141839 | 76 | 82 | 2.0 | 4.0 | 0.01 | 0.64 | 0.63 | 92 | 1011.4 |
| 20260904141602 | 76 | 82 | 2.0 | 3.0 | 0.01 | 0.64 | 0.63 | 92 | 1011.3 |
| 20260904140840 | 76 | 82 | 2.0 | 5.0 | 0.02 | 0.64 | 0.63 | 92 | 1011.3 |
| 20260904140338 | 76 | 81 | 2.0 | 5.0 | 0.02 | 0.64 | 0.63 | 92 | 1011.3 |
| 20260904135832 | 76 | 61 | 1.0 | 3.0 | 0.02 | 0.64 | 0.63 | 92 | 1011.3 |
| 20260904135327 | 76 | 61 | 1.0 | 3.0 | 0.03 | 0.64 | 0.63 | 92 | 1011.3 |
| 20260904134822 | 76 | 61 | 1.0 | 3.0 | 0.03 | 0.64 | 0.63 | 92 | 1011.2 |
| 20260904134314 | 76 | 60 | 2.0 | 3.0 | 0.03 | 0.64 | 0.63 | 92 | 1011.3 |
| 20260904133809 | 76 | 51 | 1.0 | 3.0 | 0.04 | 0.64 | 0.63 | 92 | 1011.1 |
| 20260904133302 | 75 | 37 | 1.0 | 3.0 | 0.03 | 0.63 | 0.62 | 92 | 1011.0 |
| 20260904132757 | 75 | 37 | 0.0 | 0.0 | 0.03 | 0.63 | 0.62 | 92 | 1011.1 |
| 20260904132520 | 75 | 37 | 0.0 | 0.0 | 0.04 | 0.63 | 0.62 | 92 | 1011.1 |
| 20260904131745 | 75 | 37 | 0.0 | 0.0 | 0.04 | 0.63 | 0.62 | 92 | 1011.0 |
| 20260904131239 | 75 | 37 | 0.0 | 0.0 | 0.05 | 0.63 | 0.62 | 91 | 1010.9 |
| 20260904130733 | 75 | 37 | 0.0 | 0.0 | 0.04 | 0.62 | 0.61 | 91 | 1010.9 |
| 20260904130227 | 74 | 37 | 0.0 | 0.0 | 0.05 | 0.62 | 0.61 | 91 | 1010.9 |
| 20260904125720 | 74 | 37 | 0.0 | 0.0 | 0.06 | 0.62 | 0.61 | 91 | 1010.9 |
| 20260904125215 | 74 | 37 | 0.0 | 0.0 | 0.06 | 0.61 | 0.60 | 91 | 1010.9 |
| 20260904124928 | 74 | 37 | 0.0 | 0.0 | 0.06 | 0.62 | 0.60 | 91 | 1010.7 |
| 20260904124203 | 74 | 37 | 0.0 | 0.0 | 0.07 | 0.63 | 0.60 | 91 | 1010.7 |
| 20260904123656 | 74 | 37 | 0.0 | 0.0 | 0.07 | 0.62 | 0.59 | 91 | 1010.7 |
| 20260904123641 | 74 | 36 | 0.0 | 0.0 | 0.08 | 0.62 | 0.59 | 90 | 1010.6 |
| 20260904122645 | 74 | 36 | 0.0 | 0.0 | 0.08 | 0.61 | 0.58 | 90 | 1010.6 |
| 20260904122138 | 74 | 36 | 0.0 | 0.0 | 0.09 | 0.61 | 0.58 | 90 | 1010.6 |
| 20260904121633 | 74 | 36 | 0.0 | 0.0 | 0.09 | 0.61 | 0.58 | 90 | 1010.6 |
| 20260904121127 | 74 | 36 | 0.0 | 0.0 | 0.10 | 0.61 | 0.57 | 90 | 1010.6 |
| 20260904120620 | 74 | 36 | 0.0 | 0.0 | 0.10 | 0.60 | 0.56 | 90 | 1010.6 |
| 20260904120340 | 74 | 36 | 0.0 | 0.0 | 0.12 | 0.60 | 0.56 | 90 | 1010.7 |
| 20260904115609 | 74 | 36 | 0.0 | 0.0 | 0.13 | 0.60 | 0.55 | 90 | 1010.8 |
| 20260904115103 | 74 | 36 | 0.0 | 0.0 | 0.14 | 0.59 | 0.54 | 90 | 1010.7 |
| 20260904114556 | 74 | 36 | 0.0 | 0.0 | 0.15 | 0.59 | 0.54 | 90 | 1010.7 |
| 20260904114051 | 74 | 36 | 0.0 | 0.0 | 0.14 | 0.58 | 0.53 | 90 | 1010.6 |
| 20260904113544 | 74 | 36 | 0.0 | 0.0 | 0.13 | 0.57 | 0.52 | 90 | 1010.6 |
| 20260904113038 | 74 | 36 | 0.0 | 0.0 | 0.12 | 0.56 | 0.51 | 90 | 1010.5 |
| 20260904112750 | 74 | 36 | 0.0 | 0.0 | 0.11 | 0.55 | 0.50 | 90 | 1010.4 |
| 20260904112027 | 74 | 36 | 0.0 | 0.0 | 0.10 | 0.54 | 0.49 | 90 | 1010.1 |
| 20260904111522 | 74 | 36 | 0.0 | 0.0 | 0.09 | 0.53 | 0.48 | 90 | 1010.1 |
| 20260904111015 | 74 | 36 | 0.0 | 0.0 | 0.09 | 0.52 | 0.47 | 90 | 1010.0 |
| 20260904110509 | 74 | 36 | 0.0 | 0.0 | 0.08 | 0.50 | 0.45 | 90 | 1010.0 |
| 20260904110004 | 74 | 36 | 0.0 | 3.0 | 0.08 | 0.48 | 0.44 | 90 | 1009.9 |
| 20260904105457 | 74 | 38 | 0.0 | 3.0 | 0.07 | 0.46 | 0.42 | 90 | 1010.4 |
| 20260904104951 | 74 | 10 | 0.0 | 0.0 | 0.08 | 0.44 | 0.39 | 89 | 1010.5 |
| 20260904104444 | 74 | 11 | 0.0 | 0.0 | 0.10 | 0.44 | 0.39 | 89 | 1010.0 |
| 20260904103939 | 74 | 11 | 0.0 | 0.0 | 0.14 | 0.44 | 0.39 | 89 | 1009.9 |
| 20260904103433 | 74 | 11 | 0.0 | 0.0 | 0.18 | 0.44 | 0.39 | 89 | 1009.9 |
| 20260904102926 | 74 | 11 | 0.0 | 0.0 | 0.24 | 0.44 | 0.39 | 89 | 1010.0 |
| 20260904102421 | 74 | 11 | 0.0 | 0.0 | 0.32 | 0.44 | 0.39 | 89 | 1010.0 |
| 20260904101915 | 74 | 11 | 0.0 | 0.0 | 0.39 | 0.44 | 0.39 | 88 | 1009.9 |
| 20260904101409 | 74 | 10 | 0.0 | 0.0 | 0.39 | 0.44 | 0.39 | 88 | 1009.9 |
| 20260904100903 | 74 | 10 | 0.0 | 0.0 | 0.38 | 0.43 | 0.38 | 88 | 1009.9 |
| 20260904100358 | 74 | 10 | 0.0 | 0.0 | 0.37 | 0.42 | 0.37 | 87 | 1009.8 |
| 20260904095850 | 74 | 10 | 0.0 | 0.0 | 0.35 | 0.40 | 0.35 | 87 | 1009.8 |
| 20260904095344 | 74 | 11 | 0.0 | 0.0 | 0.33 | 0.38 | 0.33 | 86 | 1009.8 |
| 20260904094839 | 75 | 9 | 0.0 | 0.0 | 0.31 | 0.36 | 0.31 | 86 | 1009.7 |
| 20260904094332 | 75 | 5 | 1.0 | 3.0 | 0.28 | 0.33 | 0.29 | 86 | 1009.7 |
| 20260904093827 | 75 | 5 | 3.0 | 16.0 | 0.25 | 0.30 | 0.25 | 86 | 1009.5 |
| 20260904093321 | 75 | 34 | 7.0 | 16.0 | 0.20 | 0.25 | 0.21 | 85 | 1009.5 |
| 20260904092815 | 75 | 200 | 7.0 | 24.0 | 0.13 | 0.18 | 0.14 | 84 | 1010.0 |
| 20260904092749 | 76 | 227 | 3.0 | 24.0 | 0.05 | 0.10 | 0.06 | 89 | 1011.7 |
| 20260904091803 | 76 | 221 | 0.0 | 0.0 | 0.00 | 0.05 | 0.00 | 90 | 1010.5 |
| 20260904091256 | 76 | 128 | 0.0 | 0.0 | 0.00 | 0.05 | 0.00 | 90 | 1009.7 |
| 20260904090751 | 76 | 128 | 0.0 | 0.0 | 0.00 | 0.05 | 0.00 | 90 | 1009.7 |
| 20260904090244 | 76 | 128 | 0.0 | 0.0 | 0.00 | 0.05 | 0.00 | 90 | 1009.8 |
| 20260904090232 | 76 | 128 | 0.0 | 0.0 | 0.00 | 0.05 | 0.00 | 90 | 1009.9 |
| 20260904085233 | 76 | 128 | 0.0 | 0.0 | 0.00 | 0.05 | 0.00 | 90 | 1009.8 |
| 20260904084727 | 76 | 128 | 0.0 | 0.0 | 0.00 | 0.05 | 0.00 | 90 | 1009.8 |
| 20260904084220 | 76 | 128 | 0.0 | 0.0 | 0.00 | 0.05 | 0.00 | 90 | 1009.7 |
| 20260904083715 | 76 | 128 | 0.0 | 0.0 | 0.00 | 0.05 | 0.00 | 90 | 1009.6 |
| 20260904083210 | 76 | 128 | 0.0 | 0.0 | 0.00 | 0.05 | 0.00 | 90 | 1009.6 |
| 20260904082702 | 76 | 128 | 0.0 | 0.0 | 0.00 | 0.05 | 0.00 | 90 | 1009.5 |
| 20260904082156 | 76 | 128 | 0.0 | 0.0 | 0.00 | 0.05 | 0.00 | 90 | 1009.5 |
| 20260904081651 | 76 | 128 | 0.0 | 0.0 | 0.00 | 0.05 | 0.00 | 90 | 1009.4 |
| 20260904081144 | 76 | 128 | 0.0 | 0.0 | 0.00 | 0.05 | 0.00 | 90 | 1009.3 |
| 20260904080642 | 76 | 128 | 0.0 | 0.0 | 0.00 | 0.05 | 0.00 | 89 | 1009.4 |
| 20260904080142 | 75 | 128 | 0.0 | 0.0 | 0.00 | 0.05 | 0.00 | 89 | 1009.3 |
| 20260904075643 | 75 | 128 | 0.0 | 0.0 | 0.00 | 0.05 | 0.00 | 89 | 1009.3 |
| 20260904075142 | 75 | 145 | 0.0 | 0.0 | 0.00 | 0.05 | 0.00 | 89 | 1009.2 |
| 20260904074640 | 75 | 145 | 0.0 | 0.0 | 0.00 | 0.05 | 0.00 | 89 | 1009.4 |
| 20260904074139 | 75 | 145 | 0.0 | 0.0 | 0.00 | 0.05 | 0.00 | 89 | 1009.4 |
| 20260904073636 | 75 | 145 | 0.0 | 2.0 | 0.00 | 0.05 | 0.00 | 89 | 1009.4 |
| 20260904073358 | 75 | 145 | 0.0 | 2.0 | 0.00 | 0.05 | 0.00 | 89 | 1009.4 |
| 20260904072856 | 76 | 145 | 0.0 | 1.0 | 0.00 | 0.05 | 0.00 | 89 | 1009.4 |
| 20260904072134 | 76 | 145 | 0.0 | 2.0 | 0.00 | 0.05 | 0.00 | 89 | 1009.6 |
| 20260904071632 | 76 | 145 | 1.0 | 2.0 | 0.00 | 0.05 | 0.00 | 89 | 1009.6 |
| 20260904071131 | 76 | 145 | 0.0 | 3.0 | 0.00 | 0.05 | 0.00 | 89 | 1009.6 |
| 20260904070630 | 76 | 242 | 1.0 | 3.0 | 0.00 | 0.05 | 0.00 | 89 | 1009.7 |
| 20260904070130 | 76 | 100 | 1.0 | 3.0 | 0.00 | 0.05 | 0.00 | 89 | 1009.7 |
| 20260904070108 | 76 | 84 | 1.0 | 3.0 | 0.00 | 0.05 | 0.00 | 89 | 1009.7 |
| 20260904065130 | 76 | 84 | 1.0 | 3.0 | 0.00 | 0.05 | 0.00 | 89 | 1009.7 |
| 20260904064852 | 76 | 84 | 1.0 | 3.0 | 0.00 | 0.05 | 0.00 | 89 | 1009.8 |
| 20260904064127 | 76 | 84 | 2.0 | 3.0 | 0.00 | 0.05 | 0.00 | 89 | 1009.8 |
| 20260904063627 | 76 | 84 | 2.0 | 4.0 | 0.00 | 0.05 | 0.00 | 89 | 1009.9 |
| 20260904063126 | 76 | 76 | 2.0 | 4.0 | 0.00 | 0.05 | 0.00 | 89 | 1009.8 |
| 20260904062626 | 76 | 67 | 3.0 | 7.0 | 0.00 | 0.05 | 0.00 | 89 | 1009.9 |
| 20260904062126 | 76 | 74 | 3.0 | 7.0 | 0.00 | 0.05 | 0.00 | 89 | 1009.8 |
| 20260904061626 | 76 | 80 | 3.0 | 7.0 | 0.00 | 0.05 | 0.00 | 88 | 1009.9 |
| 20260904061342 | 76 | 84 | 4.0 | 6.0 | 0.00 | 0.05 | 0.00 | 88 | 1009.9 |
| 20260904061331 | 76 | 81 | 4.0 | 7.0 | 0.00 | 0.05 | 0.00 | 88 | 1009.9 |
| 20260904060127 | 76 | 92 | 3.0 | 7.0 | 0.00 | 0.05 | 0.00 | 88 | 1010.0 |
| 20260904055627 | 76 | 76 | 2.0 | 7.0 | 0.00 | 0.05 | 0.00 | 88 | 1010.1 |
| 20260904055126 | 76 | 80 | 0.0 | 3.0 | 0.00 | 0.05 | 0.00 | 88 | 1010.4 |
| 20260904054627 | 76 | 80 | 1.0 | 2.0 | 0.00 | 0.05 | 0.00 | 88 | 1010.3 |
| 20260904054344 | 76 | 81 | 2.0 | 5.0 | 0.00 | 0.05 | 0.00 | 88 | 1010.4 |
| 20260904053627 | 76 | 81 | 3.0 | 6.0 | 0.00 | 0.05 | 0.00 | 88 | 1010.5 |
| 20260904053127 | 76 | 78 | 3.0 | 6.0 | 0.00 | 0.05 | 0.00 | 88 | 1010.5 |
| 20260904052627 | 76 | 82 | 3.0 | 5.0 | 0.00 | 0.05 | 0.00 | 88 | 1010.5 |
| 20260904052126 | 76 | 76 | 3.0 | 6.0 | 0.00 | 0.05 | 0.00 | 88 | 1010.6 |
| 20260904051619 | 76 | 85 | 3.0 | 6.0 | 0.00 | 0.05 | 0.00 | 87 | 1010.7 |
| 20260904051113 | 76 | 78 | 3.0 | 6.0 | 0.00 | 0.05 | 0.00 | 87 | 1010.7 |
| 20260904050607 | 76 | 87 | 3.0 | 6.0 | 0.00 | 0.05 | 0.00 | 87 | 1010.6 |
| 20260904045557 | 76 | 94 | 2.0 | 6.0 | 0.00 | 0.05 | 0.05 | 87 | 1010.7 |
| 20260904045051 | 76 | 92 | 2.0 | 6.0 | 0.00 | 0.05 | 0.05 | 87 | 1010.7 |
| 20260904044811 | 76 | 92 | 2.0 | 6.0 | 0.00 | 0.05 | 0.05 | 87 | 1010.7 |
| 20260904044039 | 76 | 96 | 2.0 | 6.0 | 0.00 | 0.05 | 0.05 | 87 | 1010.7 |
| 20260904043532 | 76 | 96 | 3.0 | 6.0 | 0.00 | 0.05 | 0.05 | 87 | 1010.7 |
| 20260904043026 | 76 | 94 | 3.0 | 6.0 | 0.00 | 0.05 | 0.05 | 87 | 1010.8 |
| 20260904042521 | 76 | 86 | 3.0 | 6.0 | 0.00 | 0.05 | 0.05 | 87 | 1010.8 |
| 20260904042237 | 76 | 94 | 3.0 | 7.0 | 0.00 | 0.05 | 0.05 | 86 | 1010.9 |
| 20260904041508 | 76 | 90 | 3.0 | 7.0 | 0.00 | 0.05 | 0.05 | 86 | 1010.9 |
| 20260904041003 | 76 | 88 | 3.0 | 6.0 | 0.00 | 0.05 | 0.05 | 86 | 1010.9 |